﻿ProjectID	SampleID	SampleType	TaxonomyID	UniqCodeType	UniqCode	SampleName	ScientificName	CommonName	CollectionYear	CollectionMonth	CollectionDay	SamplingTimeStartEnd	SamplingTimeAMPM	SamplingDuration	WeatherStartEnd	CollectionRegion	CollectionCountry	CollectionArea	CollectionLatitudeFrom	CollectionLatitudeTo	CollectionLongitudeFrom	CollectionLongitudeTo	Sex	TissueOrgan	TissueLipid	TissueMoist	Weight	WeightUnit	Length	LengthUnit	LengthType	GrowthStage	Age	Disease	TemperatureStartEnd	WaterTemperatureStartEnd	pH	DO	EC	EC_temp	Salinity	SS	WaterDepthM	TransparencyM	WaterColor	SedimentTemperatureStartEnd	SedimentDepthM	SedimentAppearance	SedimentColor	SedimentSurfaceColor	SedimentOdor	SedimentImpurities	SedimentMoistureOnSiteAnalysis	IgnitionLossOnSiteAnalysis	SoilDepthM	FlowRate	MeanPM10	MeanTotalSuspendedParticles	HumidityStartEnd	WindDirectionStartEnd	WindSpeedMSStartEnd	AmountOfCollectedAirStartEnd	Remarks	RegisterDate	UpdateDate
PRA000100	SAA006971	ST015				OsakaCity07_2018Summer_AM	Water	"River water"	2018	7	24		AM		Fair	Asia	Japan	"Juhachijou-ohashi bridge, Kanzaki-gawa Riv., Osaka city"	34.748986		135.49703														33.7	30.32	7.38		32.5																									2020/06/22	2020/06/22
PRA000100	SAA006972	ST015				OsakaCity07_2018Summer_PM	Water	"River water"	2018	7	24		PM		Fair	Asia	Japan	"Juhachijou-ohashi bridge, Kanzaki-gawa Riv., Osaka city"	34.748986		135.49703														36.6	32.05	7.44		47.4																									2020/06/22	2020/06/22
PRA000100	SAA006973	ST015				OsakaCity08_2018Summer_AM	Water	"River water"	2018	7	24		AM		Fair	Asia	Japan	"Enoki bridge, Kanzaki-gawa Riv., Osaka city"	34.7513		135.492125														33.4	30.68	7.25		35.3																									2020/06/22	2020/06/22
PRA000100	SAA006974	ST015				OsakaCity08_2018Summer_PM	Water	"River water"	2018	7	24		PM		Fair	Asia	Japan	"Enoki bridge, Kanzaki-gawa Riv., Osaka city"	34.7513		135.492125														36.6	32.04	7.3		34.5																									2020/06/22	2020/06/22
PRA000100	SAA006975	ST015				OsakaCity09_2018Summer_AM	Water	"River water"	2018	7	24		AM		Fair	Asia	Japan	"Upstream of Ochiai wharf (Kita-tsumori side), Kizu-gawa Riv., Osaka city"	34.64405		135.479776														35.1	30.26	7.25		780																									2020/06/22	2020/06/22
PRA000100	SAA006976	ST015				OsakaCity09_2018Summer_PM	Water	"River water"	2018	7	24		PM		Fair	Asia	Japan	"Upstream of Ochiai wharf (Kita-tsumori side), Kizu-gawa Riv., Osaka city"	34.64405		135.479776														36.6	31.72	7.25		529																									2020/06/22	2020/06/22
PRA000100	SAA006977	ST015				OsakaCity10_2018Summer_AM	Water	"River water"	2018	7	24		AM		Fair	Asia	Japan	"Downstream of Ochiai wharf (Tsumori side), Kizu0gawa Riv., Osaka city"	34.64216		135.479906														34.4	29.64	6.79		1100																									2020/06/22	2020/06/22
PRA000100	SAA006978	ST015				OsakaCity10_2018Summer_PM	Water	"River water"	2018	7	24		PM		Fair	Asia	Japan	"Downstream of Ochiai wharf (Tsumori side), Kizu0gawa Riv., Osaka city"	34.64216		135.479906														37	31.1	7		804																									2020/06/22	2020/06/22
PRA000100	SAA006979	ST015				OsakaCity11_2018Summer_AM	Water	"River water"	2018	7	24		AM		Fair	Asia	Japan	"Shigino-ohashi bridge, Daini Neyagawa Riv., Osaka city"	34.688627		135.545553														33.2	29.5	6.93		54.8																									2020/06/22	2020/06/22
PRA000100	SAA006980	ST015				OsakaCity11_2018Summer_PM	Water	"River water"	2018	7	24		PM		Fair	Asia	Japan	"Shigino-ohashi bridge, Daini Neyagawa Riv., Osaka city"	34.688627		135.545553														35.5	31.67	7.02		57																									2020/06/22	2020/06/22
PRA000100	SAA006981	ST015				OsakaCity12_2018Summer_AM	Water	"River water"	2018	7	24		AM		Fair	Asia	Japan	"Shimoshiromi bridge, Daini Neyagawa Riv., Osaka city"	34.689562		135.537748														32.5	28.59	7.08		53.1																									2020/06/22	2020/06/22
PRA000100	SAA006982	ST015				OsakaCity12_2018Summer_PM	Water	"River water"	2018	7	24		PM		Fair	Asia	Japan	"Shimoshiromi bridge, Daini Neyagawa Riv., Osaka city"	34.689562		135.537748														35.9	31.4	7.03		56.5																									2020/06/22	2020/06/22
PRA000100	SAA006983	ST015				OsakaCity13_2018Summer_AM	Water	"River water"	2018	7	24		AM		Fair	Asia	Japan	"Kema Watergate, Oh-kawa Riv., Osaka City"	34.721115		135.517125														33	30.14	7.9		17																									2020/06/22	2020/06/22
PRA000100	SAA006984	ST015				OsakaCity13_2018Summer_PM	Water	"River water"	2018	7	24		PM		Fair	Asia	Japan	"Kema Watergate, Oh-kawa Riv., Osaka City"	34.721115		135.517125														36	31.64	8.2		16.7																									2020/06/22	2020/06/22
PRA000100	SAA006985	ST015				HyogoPref14_2018Summer_AM	Water	"River water"	2018	6	27		AM		Fair	Asia	Japan	"Upstream of Sewage Treatment Plant, Muko-gawa Riv., Hyogo"	34.860611		135.266559														29	25.8	7.8		23.1				>0.3																					2020/06/22	2020/06/22
PRA000100	SAA006986	ST015				HyogoPref14_2018Summer_PM	Water	"River water"	2018	6	27		PM		Fair	Asia	Japan	"Upstream of Sewage Treatment Plant, Muko-gawa Riv., Hyogo"	34.860611		135.266559														30	27.7	8.5		22.4				>0.3																					2020/06/22	2020/06/22
PRA000100	SAA006987	ST015				HyogoPref15_2018Summer_AM	Water	"River water"	2018	6	27		AM		Fair	Asia	Japan	"Downstream of Sewage Treatment Plant, Muko-gawa Riv., Hyogo"	34.862497		135.271899														30.5	26	7.5		27				>0.3																					2020/06/22	2020/06/22
PRA000100	SAA006988	ST015				HyogoPref15_2018Summer_PM	Water	"River water"	2018	6	27		PM		Fair	Asia	Japan	"Downstream of Sewage Treatment Plant, Muko-gawa Riv., Hyogo"	34.862497		135.271899														30.5	27.4	8		28.4				>0.3																					2020/06/22	2020/06/22
PRA000100	SAA006989	ST015				HyogoPref16_2018Summer_AM	Water	"River water"	2018	6	22		AM		Fair	Asia	Japan	"Inagawa bridge, Ina-gawa Riv., Hyogo"	34.769842		135.43758														29.5	21.9	8.3		15.7				>0.3																					2020/06/22	2020/06/22
PRA000100	SAA006990	ST015				HyogoPref16_2018Summer_PM	Water	"River water"	2018	6	22		PM		Fair	Asia	Japan	"Inagawa bridge, Ina-gawa Riv., Hyogo"	34.769842		135.43758														31.2	24.1	8		15.7				>0.3																					2020/06/22	2020/06/22
PRA000100	SAA006991	ST015				HyogoPref17_2018Summer_AM	Water	"River water"	2018	6	22		AM		Fair	Asia	Japan	"Tokura  bridge, Ina-gawa Riv., Hyogo"	34.761609		135.455115														28	24.4	8		39.2				>0.3																					2020/06/22	2020/06/22
PRA000100	SAA006992	ST015				HyogoPref17_2018Summer_PM	Water	"River water"	2018	6	22		PM		Fair	Asia	Japan	"Tokura  bridge, Ina-gawa Riv., Hyogo"	34.761609		135.455115														31	23.3	7.8		39.2				>0.3																					2020/06/22	2020/06/22
PRA000100	SAA006993	ST015				HyogoPref18_2018Summer_AM	Water	"River water"	2018	6	14		AM		Fair	Asia	Japan	"Banzai  bridge, Kako-gawa Riv., Hyogo"	34.822275		134.935273														22	21.3	7.4		14.61				>0.3																					2020/06/22	2020/06/22
PRA000100	SAA006994	ST015				HyogoPref18_2018Summer_PM	Water	"River water"	2018	6	14		PM		Fair	Asia	Japan	"Banzai  bridge, Kako-gawa Riv., Hyogo"	34.822275		134.935273														29.2	23.3	7.1		15.95				>0.3																					2020/06/22	2020/06/22
PRA000100	SAA006995	ST015				HyogoPref19_2018Summer_AM	Water	"River water"	2018	6	14		AM		Fair	Asia	Japan	"Leftshore of Kamisho Bridge, Kako-gawa Riv., Hyogo"	34.796573		134.900129														23	21.6	7.2		15.63				>0.3																					2020/06/22	2020/06/22
PRA000100	SAA006996	ST015				HyogoPref19_2018Summer_PM	Water	"River water"	2018	6	14		PM		Fair	Asia	Japan	"Leftshore of Kamisho Bridge, Kako-gawa Riv., Hyogo"	34.796573		134.900129														25.5	23.2	7.1		14.81				>0.3																					2020/06/22	2020/06/22
PRA000100	SAA006997	ST015				HyogoPref20_2018Summer_AM	Water	"River water"	2018	6	14		AM		Fair	Asia	Japan	"Rightshore of Kamisho Bridge, Kako-gawa Riv., Hyogo"	34.797826		134.899419														23	21.5	7.1		8.52				>0.3																					2020/06/22	2020/06/22
PRA000100	SAA006998	ST015				HyogoPref20_2018Summer_PM	Water	"River water"	2018	6	14		PM		Fair	Asia	Japan	"Rightshore of Kamisho Bridge, Kako-gawa Riv., Hyogo"	34.797826		134.899419														25.5	22.6	7		15.45				>0.3																					2020/06/22	2020/06/22
PRA000100	SAA006999	ST015				HyogoPref21_2018Summer_AM	Water	"River water"	2018	6	14		AM		Fair	Asia	Japan	"Kakogawa  Bridge, Kako-gawa Riv., Hyogo"	34.772654		134.828232														25.8	22.7	7		14.48				>0.3																					2020/06/22	2020/06/22
PRA000100	SAA007000	ST015				HyogoPref21_2018Summer_PM	Water	"River water"	2018	6	14		PM		Fair	Asia	Japan	"Kakogawa  Bridge, Kako-gawa Riv., Hyogo"	34.772654		134.828232														26.8	23.7	7		14.7				>0.3																					2020/06/22	2020/06/22
PRA000100	SAA007001	ST015				NagoyaCity22_2018Summer_AM	Water	"River water"	2018	8	10		AM		Fair	Asia	Japan	"Chuji bridge, Yamazaki-gawa Riv., Nagoya city, Aichi"	35.10286		136.920674																																											2020/06/22	2020/06/22
PRA000100	SAA007002	ST015				NagoyaCity22_2018Summer_PM	Water	"River water"	2018	8	10		PM		Fair	Asia	Japan	"Chuji bridge, Yamazaki-gawa Riv., Nagoya city, Aichi"	35.10286		136.920674														35	32.8	7.99																											2020/06/22	2020/06/22
PRA000100	SAA007003	ST015				NagoyaCity23_2018Summer_AM	Water	"River water"	2018	8	10		AM		Fair	Asia	Japan	"Hosei bridge, Yamazaki-gawa Riv., Nagoya city, Aichi"	35.097963		136.919463																																											2020/06/22	2020/06/22
PRA000100	SAA007004	ST015				NagoyaCity23_2018Summer_PM	Water	"River water"	2018	8	10		PM		Fair	Asia	Japan	"Hosei bridge, Yamazaki-gawa Riv., Nagoya city, Aichi"	35.097963		136.919463														35.1	33	8.31																											2020/06/22	2020/06/22
PRA000100	SAA007005	ST015				NagoyaCity24_2018Summer_AM	Water	"River water"	2018	8	10		AM		Fair	Asia	Japan	"Johoku bridge, Hori-kawa Riv., Nagoya city, Aichi"	35.192455		136.903276																																											2020/06/22	2020/06/22
PRA000100	SAA007006	ST015				NagoyaCity24_2018Summer_PM	Water	"River water"	2018	8	10		PM		Fair	Asia	Japan	"Johoku bridge, Hori-kawa Riv., Nagoya city, Aichi"	35.192455		136.903276														37	30.8	7.06																											2020/06/22	2020/06/22
PRA000100	SAA007007	ST015				NagoyaCity25_2018Summer_AM	Water	"River water"	2018	8	10		AM		Fair	Asia	Japan	"Nakatsuchito bridge, Hori-kawa Riv., Nagoya city, Aichi"	35.190792		136.899916																																											2020/06/22	2020/06/22
PRA000100	SAA007008	ST015				NagoyaCity25_2018Summer_PM	Water	"River water"	2018	8	10		PM		Fair	Asia	Japan	"Nakatsuchito bridge, Hori-kawa Riv., Nagoya city, Aichi"	35.190792		136.899916														35.6	29.5	7.01																											2020/06/22	2020/06/22
PRA000100	SAA007009	ST015				NagoyaCity26_2018Summer_AM	Water	"River water"	2018	8	10		AM		Fair	Asia	Japan	"Ooseko bridge, Hori-kawa Riv., Nagoya city, Aichi"	35.119784		136.903238																																											2020/06/22	2020/06/22
PRA000100	SAA007010	ST015				NagoyaCity26_2018Summer_PM	Water	"River water"	2018	8	10		PM		Fair	Asia	Japan	"Ooseko bridge, Hori-kawa Riv., Nagoya city, Aichi"	35.119784		136.903238														36.2	31.3	7.29																											2020/06/22	2020/06/22
PRA000100	SAA007011	ST015				NagoyaCity27_2018Summer_AM	Water	"River water"	2018	8	10		AM		Fair	Asia	Japan	"Kizaemon bridge, Hori-kawa Riv., Nagoya city, Aichi"	35.111162		136.900416																																											2020/06/22	2020/06/22
PRA000100	SAA007012	ST015				NagoyaCity27_2018Summer_PM	Water	"River water"	2018	8	10		PM		Fair	Asia	Japan	"Kizaemon bridge, Hori-kawa Riv., Nagoya city, Aichi"	35.111162		136.900416														36.1	31.6	7.81																											2020/06/22	2020/06/22
PRA000100	SAA007013	ST015				NagoyaCity28_2018Summer_AM	Water	"River water"	2018	8	10		AM		Fair	Asia	Japan	"Maizuru bridge, Shinhori-kawa Riv., Nagoya city, Aichi"	35.159524		136.91																																											2020/06/22	2020/06/22
PRA000100	SAA007014	ST015				NagoyaCity28_2018Summer_PM	Water	"River water"	2018	8	10		PM		Fair	Asia	Japan	"Maizuru bridge, Shinhori-kawa Riv., Nagoya city, Aichi"	35.159524		136.91														36	29.4	7.06																											2020/06/22	2020/06/22
PRA000100	SAA007015	ST015				Tokyo29_2018Summer_AM	Water	"River water"	2018	7	19		AM		Fair	Asia	Japan	"Nagata bridge, Tama-gawa Riv., Tokyo"	35.739004		139.318815														32.8	23.6																												2020/06/22	2020/06/22
PRA000100	SAA007016	ST015				Tokyo29_2018Summer_PM	Water	"River water"	2018	7	19		PM		Fair	Asia	Japan	"Nagata bridge, Tama-gawa Riv., Tokyo"	35.739004		139.318815														32.4	25.2																												2020/06/22	2020/06/22
PRA000100	SAA007017	ST015				Tokyo30_2018Summer_AM	Water	"River water"	2018	7	19		AM		Cloudy	Asia	Japan	"Hino-bashi bridge, Tama-gawa Riv., Tokyo"	35.683052		139.412492														30.6	27.8																												2020/06/22	2020/06/22
PRA000100	SAA007018	ST015				Tokyo30_2018Summer_PM	Water	"River water"	2018	7	19		PM		Fair	Asia	Japan	"Hino-bashi bridge, Tama-gawa Riv., Tokyo"	35.683052		139.412492														32.4	30.4																												2020/06/22	2020/06/22
PRA000100	SAA007019	ST015				Tokyo31_2018Summer_AM	Water	"River water"	2018	7	19		AM		Cloudy	Asia	Japan	"Sekido bridge, Tama-gawa Riv., Tokyo"	35.653498		139.455179														30.7	27.1																												2020/06/22	2020/06/22
PRA000100	SAA007020	ST015				Tokyo31_2018Summer_PM	Water	"River water"	2018	7	19		PM		Fair	Asia	Japan	"Sekido bridge, Tama-gawa Riv., Tokyo"	35.653498		139.455179														34.7	30.5																												2020/06/22	2020/06/22
PRA000100	SAA007021	ST015				Tokyo32_2018Summer_AM	Water	"River water"	2018	7	19		AM		Fair	Asia	Japan	"Tamagawara-bashi bridge, Tama-gawa Riv., Tokyo"	35.643876		139.525471														34.4	28.2																												2020/06/22	2020/06/22
PRA000100	SAA007022	ST015				Tokyo32_2018Summer_PM	Water	"River water"	2018	7	19		PM		Fair	Asia	Japan	"Tamagawara-bashi bridge, Tama-gawa Riv., Tokyo"	35.643876		139.525471														33.3	29.7																												2020/06/22	2020/06/22
PRA000100	SAA007023	ST015				Tokyo33_2018Summer_AM	Water	"River water"	2018	7	19		AM		Cloudy	Asia	Japan	"Hoon-bashi bridge, Oguri-gawa Riv., Tokyo"	35.648532		139.457918														31.6	26.3																												2020/06/22	2020/06/22
PRA000100	SAA007024	ST015				Tokyo33_2018Summer_PM	Water	"River water"	2018	7	19		PM		Fair	Asia	Japan	"Hoon-bashi bridge, Oguri-gawa Riv., Tokyo"	35.648532		139.457918														34.8	31.8																												2020/06/22	2020/06/22
PRA000100	SAA007025	ST015				Tokyo34_2018Summer_AM	Water	"River water"	2018	7	19		AM		Fair	Asia	Japan	"Takahata bridge, Asa-kawa Riv., Tokyo"	35.664964		139.407388														29	25.6																												2020/06/22	2020/06/22
PRA000100	SAA007026	ST015				Tokyo34_2018Summer_PM	Water	"River water"	2018	7	19		PM		Fair	Asia	Japan	"Takahata bridge, Asa-kawa Riv., Tokyo"	35.664964		139.407388														33.6	30.8																												2020/06/22	2020/06/22
PRA000100	SAA007027	ST015				Tokyo35_2018Summer_AM	Water	"River water"	2018	9	27		AM		Rainy	Asia	Japan	"Seiryu-bashi bridge, Yanase-gawa Riv., Kiyose city, Tokyo"	35.80483		139.538193														17	19																												2020/06/22	2020/06/22
PRA000100	SAA007028	ST015				Tokyo35_2018Summer_PM	Water	"River water"	2018	9	27		PM		Rainy	Asia	Japan	"Seiryu-bashi bridge, Yanase-gawa Riv., Kiyose city, Tokyo"	35.80483		139.538193														17.5	19																												2020/06/22	2020/06/22
PRA000100	SAA007029	ST015				Tokyo36_2018Summer_AM	Water	"River water"	2018	9	27		AM		Rainy	Asia	Japan	"Sakae bridge, Yanase-gawa Riv., Shiki city, Saitama"	35.835634		139.580318														18.5	20.7																												2020/06/22	2020/06/22
PRA000100	SAA007030	ST015				Tokyo36_2018Summer_PM	Water	"River water"	2018	9	27		PM		Cloudy	Asia	Japan	"Sakae bridge, Yanase-gawa Riv., Shiki city, Saitama"	35.835634		139.580318														17	21																												2020/06/22	2020/06/22
PRA000100	SAA007031	ST015				Tokyo37_2018Summer_AM	Water	"River water"	2018	9	26		AM		Cloudy	Asia	Japan	"Ohgi-ohashi bridge, Ara-kawa Riv., Adachi Ward, Tokyo"	35.757589		139.770681														19.5	22																												2020/06/22	2020/06/22
PRA000100	SAA007032	ST015				Tokyo37_2018Summer_PM	Water	"River water"	2018	9	26		PM		Cloudy	Asia	Japan	"Ohgi-ohashi bridge, Ara-kawa Riv., Adachi Ward, Tokyo"	35.757589		139.770681														20.8	22																												2020/06/22	2020/06/22
PRA000100	SAA007033	ST015				Tokyo38_2018Summer_AM	Water	"River water"	2018	9	26		AM		Cloudy	Asia	Japan	"Horikiri bridge, Ara-kawa Riv., Tokyo"	35.745773		139.819413														21	22.3																												2020/06/22	2020/06/22
PRA000100	SAA007034	ST015				Tokyo38_2018Summer_PM	Water	"River water"	2018	9	26		PM		Cloudy	Asia	Japan	"Horikiri bridge, Ara-kawa Riv., Tokyo"	35.745773		139.819413														20	22.3																												2020/06/22	2020/06/22
PRA000100	SAA007035	ST015				Tokyo39_2018Summer_AM	Water	"River water"	2018	8	23		AM		Fair	Asia	Japan	"Odai Bridge, Sumida-gawa Riv., Tokyo"	35.754176		139.762566														34.8	28	7.2																											2020/06/22	2020/06/22
PRA000100	SAA007036	ST015				Tokyo39_2018Summer_PM	Water	"River water"	2018	8	23		PM		Fair	Asia	Japan	"Odai Bridge, Sumida-gawa Riv., Tokyo"	35.754176		139.762566														34.3	29	7.14																											2020/06/22	2020/06/22
PRA000100	SAA007037	ST015				Tokyo40_2018Summer_AM	Water	"River water"	2018	8	23		AM		Fair	Asia	Japan	"Ryogoku Bridge, Sumida Riv., Tokyo"	35.694258		139.788704														33	28.5	7.15																											2020/06/22	2020/06/22
PRA000100	SAA007038	ST015				Tokyo40_2018Summer_PM	Water	"River water"	2018	8	23		PM		Fair	Asia	Japan	"Ryogoku Bridge, Sumida Riv., Tokyo"	35.694258		139.788704														35	28	7.2																											2020/06/22	2020/06/22
PRA000100	SAA007039	ST015				Tokyo41_2018Summer_AM	Water	"River water"	2018	6	29		AM		Fair	Asia	Japan	"Shiodome bridge, Naka-gawa Riv., Saitama"	35.800727		139.85166														31	27.3	7.71																											2020/06/22	2020/06/22
PRA000100	SAA007040	ST015				Tokyo41_2018Summer_PM	Water	"River water"	2018	6	29		PM		Fair	Asia	Japan	"Shiodome bridge, Naka-gawa Riv., Saitama"	35.800727		139.85166														32.9	27.5	7.79																											2020/06/22	2020/06/22
PRA000100	SAA007041	ST015				Tokyo42_2018Summer_AM	Water	"River water"	2018	6	29		AM		Fair	Asia	Japan	"Heiwa bridge, Naka-gawa Riv., Tokyo"	35.727687		139.848471														31.8	27	7.6																											2020/06/22	2020/06/22
PRA000100	SAA007042	ST015				Tokyo42_2018Summer_PM	Water	"River water"	2018	6	29		PM		Fair	Asia	Japan	"Heiwa bridge, Naka-gawa Riv., Tokyo"	35.727687		139.848471														32.1	27.4	7.77																											2020/06/22	2020/06/22
PRA000100	SAA007043	ST015				OsakaCity07_2018Winter_AM	Water	"River water"	2018	2	28		AM		Cloudy	Asia	Japan	"Juhachijou-ohashi bridge, Kanzaki-gawa Riv., Osaka city"	34.748986		135.49703														14	13.25	7.25		57.4																									2020/06/22	2020/06/22
PRA000100	SAA007044	ST015				OsakaCity07_2018Winter_PM	Water	"River water"	2018	2	28		PM		Cloudy	Asia	Japan	"Juhachijou-ohashi bridge, Kanzaki-gawa Riv., Osaka city"	34.748986		135.49703														16.4	12.97	7.27		51.8																									2020/06/22	2020/06/22
PRA000100	SAA007045	ST015				OsakaCity08_2018Winter_AM	Water	"River water"	2018	2	28		AM		Cloudy	Asia	Japan	"Enoki bridge, Kanzaki-gawa Riv., Osaka city"	34.7513		135.492125														16.7	13.65	7.12		66.9																									2020/06/22	2020/06/22
PRA000100	SAA007046	ST015				OsakaCity08_2018Winter_PM	Water	"River water"	2018	2	28		PM		Cloudy	Asia	Japan	"Enoki bridge, Kanzaki-gawa Riv., Osaka city"	34.7513		135.492125														16	14.05	7.2		123																									2020/06/22	2020/06/22
PRA000100	SAA007047	ST015				OsakaCity09_2018Winter_AM	Water	"River water"	2018	2	28		AM		Cloudy	Asia	Japan	"Upstream of Ochiai wharf (Kita-tsumori side), Kizu-gawa Riv., Osaka city"	34.64405		135.479776														18.3	12.58	7.38		1910																									2020/06/22	2020/06/22
PRA000100	SAA007048	ST015				OsakaCity09_2018Winter_PM	Water	"River water"	2018	2	28		PM		Cloudy	Asia	Japan	"Upstream of Ochiai wharf (Kita-tsumori side), Kizu-gawa Riv., Osaka city"	34.64405		135.479776														17	12.1	7.42		1300																									2020/06/22	2020/06/22
PRA000100	SAA007049	ST015				OsakaCity10_2018Winter_AM	Water	"River water"	2018	2	28		AM		Cloudy	Asia	Japan	"Downstream of Ochiai wharf (Tsumori side), Kizu0gawa Riv., Osaka city"	34.64216		135.479906														17.4	14.06	7.09		1880																									2020/06/22	2020/06/22
PRA000100	SAA007050	ST015				OsakaCity10_2018Winter_PM	Water	"River water"	2018	2	28		PM		Cloudy	Asia	Japan	"Downstream of Ochiai wharf (Tsumori side), Kizu0gawa Riv., Osaka city"	34.64216		135.479906														16.5	14.58	6.98		1820																									2020/06/22	2020/06/22
PRA000100	SAA007051	ST015				OsakaCity11_2018Winter_AM	Water	"River water"	2018	2	28		AM		Cloudy	Asia	Japan	"Shigino-ohashi bridge, Daini Neyagawa Riv., Osaka city"	34.688627		135.545553														15	16.32	6.78		59.5																									2020/06/22	2020/06/22
PRA000100	SAA007052	ST015				OsakaCity11_2018Winter_PM	Water	"River water"	2018	2	28		PM		Cloudy	Asia	Japan	"Shigino-ohashi bridge, Daini Neyagawa Riv., Osaka city"	34.688627		135.545553														19.3	16.89	6.83		65.3																									2020/06/22	2020/06/22
PRA000100	SAA007053	ST015				OsakaCity12_2018Winter_AM	Water	"River water"	2018	2	28		AM		Cloudy	Asia	Japan	"Shimoshiromi bridge, Daini Neyagawa Riv., Osaka city"	34.689562		135.537748														15.2	15.67	6.87		51.4																									2020/06/22	2020/06/22
PRA000100	SAA007054	ST015				OsakaCity12_2018Winter_PM	Water	"River water"	2018	2	28		PM		Cloudy	Asia	Japan	"Shimoshiromi bridge, Daini Neyagawa Riv., Osaka city"	34.689562		135.537748														18.9	16.27	6.85		63.9																									2020/06/22	2020/06/22
PRA000100	SAA007055	ST015				OsakaCity13_2018Winter_AM	Water	"River water"	2018	2	28		AM		Cloudy	Asia	Japan	"Kema Watergate, Oh-kawa Riv., Osaka City"	34.721115		135.517125														14.5	11.36	7.63		18.3																									2020/06/22	2020/06/22
PRA000100	SAA007056	ST015				OsakaCity13_2018Winter_PM	Water	"River water"	2018	2	28		PM		Cloudy	Asia	Japan	"Kema Watergate, Oh-kawa Riv., Osaka City"	34.721115		135.517125														18.8	12.54	7.79		24.2																									2020/06/22	2020/06/22
PRA000100	SAA007057	ST015				HyogoPref14_2018Winter_AM	Water	"River water"	2018	2	15		AM		Cloudy	Asia	Japan	"Upstream of Sewage Treatment Plant, Muko-gawa Riv., Hyogo"	34.860611		135.266559														7	5	8		26				>0.3																					2020/06/22	2020/06/22
PRA000100	SAA007058	ST015				HyogoPref14_2018Winter_PM	Water	"River water"	2018	2	15		PM		Cloudy	Asia	Japan	"Upstream of Sewage Treatment Plant, Muko-gawa Riv., Hyogo"	34.860611		135.266559														9	7.1	7.5		23				>0.3																					2020/06/22	2020/06/22
PRA000100	SAA007059	ST015				HyogoPref15_2018Winter_AM	Water	"River water"	2018	2	15		AM		Cloudy	Asia	Japan	"Downstream of Sewage Treatment Plant, Muko-gawa Riv., Hyogo"	34.862497		135.271899														8.8	7.6	8		34				>0.3																					2020/06/22	2020/06/22
PRA000100	SAA007060	ST015				HyogoPref15_2018Winter_PM	Water	"River water"	2018	2	15		PM		Cloudy	Asia	Japan	"Downstream of Sewage Treatment Plant, Muko-gawa Riv., Hyogo"	34.862497		135.271899														8.8	9.1	7.1		31.6				>0.3																					2020/06/22	2020/06/22
PRA000100	SAA007061	ST015				HyogoPref16_2018Winter_AM	Water	"River water"	2018	2	20		AM		Fair	Asia	Japan	"Inagawa bridge, Ina-gawa Riv., Hyogo"	34.769842		135.43758														9.5	9.1	7.1		19.4				>0.3																					2020/06/22	2020/06/22
PRA000100	SAA007062	ST015				HyogoPref16_2018Winter_PM	Water	"River water"	2018	2	20		PM		Fair	Asia	Japan	"Inagawa bridge, Ina-gawa Riv., Hyogo"	34.769842		135.43758														11	14	6.9		19.9				>0.3																					2020/06/22	2020/06/22
PRA000100	SAA007063	ST015				HyogoPref17_2018Winter_AM	Water	"River water"	2018	2	20		AM		Fair	Asia	Japan	"Tokura  bridge, Ina-gawa Riv., Hyogo"	34.761609		135.455115														10	16.1	6.7		43.8				>0.3																					2020/06/22	2020/06/22
PRA000100	SAA007064	ST015				HyogoPref17_2018Winter_PM	Water	"River water"	2018	2	20		PM		Fair	Asia	Japan	"Tokura  bridge, Ina-gawa Riv., Hyogo"	34.761609		135.455115														10.5	17.2	6.5		44.8				>0.3																					2020/06/22	2020/06/22
PRA000100	SAA007065	ST015				HyogoPref18_2018Winter_AM	Water	"River water"	2018	2	8		AM		Fair	Asia	Japan	"Banzai  bridge, Kako-gawa Riv., Hyogo"	34.822275		134.935273														6	3.8	7.6		21.9				>0.3																					2020/06/22	2020/06/22
PRA000100	SAA007066	ST015				HyogoPref18_2018Winter_PM	Water	"River water"	2018	2	8		PM		Fair	Asia	Japan	"Banzai  bridge, Kako-gawa Riv., Hyogo"	34.822275		134.935273														7.5	6.6	7.2		21.3				>0.3																					2020/06/22	2020/06/22
PRA000100	SAA007067	ST015				HyogoPref19_2018Winter_AM	Water	"River water"	2018	2	8		AM		Fair	Asia	Japan	"Leftshore of Kamisho Bridge, Kako-gawa Riv., Hyogo"	34.796573		134.900129														4	4.8	7.7		26.6				>0.3																					2020/06/22	2020/06/22
PRA000100	SAA007068	ST015				HyogoPref19_2018Winter_PM	Water	"River water"	2018	2	8		PM		Fair	Asia	Japan	"Leftshore of Kamisho Bridge, Kako-gawa Riv., Hyogo"	34.796573		134.900129														6.5	6.3	7.6		29.9				>0.3																					2020/06/22	2020/06/22
PRA000100	SAA007069	ST015				HyogoPref20_2018Winter_AM	Water	"River water"	2018	2	8		AM		Fair	Asia	Japan	"Rightshore of Kamisho Bridge, Kako-gawa Riv., Hyogo"	34.797826		134.899419														4.5	5	7.2		24.5				>0.3																					2020/06/22	2020/06/22
PRA000100	SAA007070	ST015				HyogoPref20_2018Winter_PM	Water	"River water"	2018	2	8		PM		Fair	Asia	Japan	"Rightshore of Kamisho Bridge, Kako-gawa Riv., Hyogo"	34.797826		134.899419														6.5	5.5	7.6		24.7				>0.3																					2020/06/22	2020/06/22
PRA000100	SAA007071	ST015				HyogoPref21_2018Winter_AM	Water	"River water"	2018	2	8		AM		Fair	Asia	Japan	"Kakogawa  Bridge, Kako-gawa Riv., Hyogo"	34.772654		134.828232														5	4.5	7.2		24.1				>0.3																					2020/06/22	2020/06/22
PRA000100	SAA007072	ST015				HyogoPref21_2018Winter_PM	Water	"River water"	2018	2	8		PM		Fair	Asia	Japan	"Kakogawa  Bridge, Kako-gawa Riv., Hyogo"	34.772654		134.828232														7	5.3	7.6		24.1				>0.3																					2020/06/22	2020/06/22
PRA000100	SAA007073	ST015				NagoyaCity22_2018Winter_AM	Water	"River water"	2018	2	27		AM		Fair	Asia	Japan	"Chuji bridge, Yamazaki-gawa Riv., Nagoya city, Aichi"	35.10286		136.920674																																											2020/06/22	2020/06/22
PRA000100	SAA007074	ST015				NagoyaCity22_2018Winter_PM	Water	"River water"	2018	2	27		PM		Fair	Asia	Japan	"Chuji bridge, Yamazaki-gawa Riv., Nagoya city, Aichi"	35.10286		136.920674															17	7.32																											2020/06/22	2020/06/22
PRA000100	SAA007075	ST015				NagoyaCity23_2018Winter_AM	Water	"River water"	2018	2	27		AM		Fair	Asia	Japan	"Hosei bridge, Yamazaki-gawa Riv., Nagoya city, Aichi"	35.097963		136.919463																																											2020/06/22	2020/06/22
PRA000100	SAA007076	ST015				NagoyaCity23_2018Winter_PM	Water	"River water"	2018	2	27		PM		Fair	Asia	Japan	"Hosei bridge, Yamazaki-gawa Riv., Nagoya city, Aichi"	35.097963		136.919463															17.1	7.31																											2020/06/22	2020/06/22
PRA000100	SAA007077	ST015				NagoyaCity24_2018Winter_AM	Water	"River water"	2018	2	27		AM		Fair	Asia	Japan	"Johoku bridge, Hori-kawa Riv., Nagoya city, Aichi"	35.192455		136.903276																																											2020/06/22	2020/06/22
PRA000100	SAA007078	ST015				NagoyaCity24_2018Winter_PM	Water	"River water"	2018	2	27		PM		Fair	Asia	Japan	"Johoku bridge, Hori-kawa Riv., Nagoya city, Aichi"	35.192455		136.903276															16.8	7.05																											2020/06/22	2020/06/22
PRA000100	SAA007079	ST015				NagoyaCity25_2018Winter_AM	Water	"River water"	2018	2	27		AM		Fair	Asia	Japan	"Nakatsuchito bridge, Hori-kawa Riv., Nagoya city, Aichi"	35.190792		136.899916																																											2020/06/22	2020/06/22
PRA000100	SAA007080	ST015				NagoyaCity25_2018Winter_PM	Water	"River water"	2018	2	27		PM		Fair	Asia	Japan	"Nakatsuchito bridge, Hori-kawa Riv., Nagoya city, Aichi"	35.190792		136.899916															16.5	7.04																											2020/06/22	2020/06/22
PRA000100	SAA007081	ST015				NagoyaCity26_2018Winter_AM	Water	"River water"	2018	2	27		AM		Fair	Asia	Japan	"Ooseko bridge, Hori-kawa Riv., Nagoya city, Aichi"	35.119784		136.903238																																											2020/06/22	2020/06/22
PRA000100	SAA007082	ST015				NagoyaCity26_2018Winter_PM	Water	"River water"	2018	2	27		PM		Fair	Asia	Japan	"Ooseko bridge, Hori-kawa Riv., Nagoya city, Aichi"	35.119784		136.903238															15.9	7.36																											2020/06/22	2020/06/22
PRA000100	SAA007083	ST015				NagoyaCity27_2018Winter_AM	Water	"River water"	2018	2	27		AM		Fair	Asia	Japan	"Kizaemon bridge, Hori-kawa Riv., Nagoya city, Aichi"	35.111162		136.900416																																											2020/06/22	2020/06/22
PRA000100	SAA007084	ST015				NagoyaCity27_2018Winter_PM	Water	"River water"	2018	2	27		PM		Fair	Asia	Japan	"Kizaemon bridge, Hori-kawa Riv., Nagoya city, Aichi"	35.111162		136.900416															15.3	7.39																											2020/06/22	2020/06/22
PRA000100	SAA007085	ST015				NagoyaCity28_2018Winter_AM	Water	"River water"	2018	2	27		AM		Fair	Asia	Japan	"Maizuru bridge, Shinhori-kawa Riv., Nagoya city, Aichi"	35.159524		136.91																																											2020/06/22	2020/06/22
PRA000100	SAA007086	ST015				NagoyaCity28_2018Winter_PM	Water	"River water"	2018	2	27		PM		Fair	Asia	Japan	"Maizuru bridge, Shinhori-kawa Riv., Nagoya city, Aichi"	35.159524		136.91															17	7.24																											2020/06/22	2020/06/22
PRA000100	SAA007087	ST015				Tokyo29_2018Winter_AM	Water	"River water"	2018	2	27		AM		Fair	Asia	Japan	"Nagata bridge, Tama-gawa Riv., Tokyo"	35.739004		139.318815														9.2	8.2																												2020/06/22	2020/06/22
PRA000100	SAA007088	ST015				Tokyo29_2018Winter_PM	Water	"River water"	2018	2	27		PM		Cloudy	Asia	Japan	"Nagata bridge, Tama-gawa Riv., Tokyo"	35.739004		139.318815														13.1	16.2																												2020/06/22	2020/06/22
PRA000100	SAA007089	ST015				Tokyo30_2018Winter_AM	Water	"River water"	2018	2	27		AM		Cloudy	Asia	Japan	"Hino-bashi bridge, Tama-gawa Riv., Tokyo"	35.683052		139.412492														9.8	15.3																												2020/06/22	2020/06/22
PRA000100	SAA007090	ST015				Tokyo30_2018Winter_PM	Water	"River water"	2018	2	27		PM		Fair	Asia	Japan	"Hino-bashi bridge, Tama-gawa Riv., Tokyo"	35.683052		139.412492														13	16.2																												2020/06/22	2020/06/22
PRA000100	SAA007091	ST015				Tokyo31_2018Winter_AM	Water	"River water"	2018	2	27		AM		Cloudy	Asia	Japan	"Sekido bridge, Tama-gawa Riv., Tokyo"	35.653498		139.455179														7.3	12																												2020/06/22	2020/06/22
PRA000100	SAA007092	ST015				Tokyo31_2018Winter_PM	Water	"River water"	2018	2	27		PM		Fair	Asia	Japan	"Sekido bridge, Tama-gawa Riv., Tokyo"	35.653498		139.455179														13.8	14.3																												2020/06/22	2020/06/22
PRA000100	SAA007093	ST015				Tokyo32_2018Winter_AM	Water	"River water"	2018	2	27		AM		Fair	Asia	Japan	"Tamagawara-bashi bridge, Tama-gawa Riv., Tokyo"	35.643876		139.525471														10.3	14.2																												2020/06/22	2020/06/22
PRA000100	SAA007094	ST015				Tokyo32_2018Winter_PM	Water	"River water"	2018	2	27		PM		Fair	Asia	Japan	"Tamagawara-bashi bridge, Tama-gawa Riv., Tokyo"	35.643876		139.525471														12.6	14.6																												2020/06/22	2020/06/22
PRA000100	SAA007095	ST015				Tokyo33_2018Winter_AM	Water	"River water"	2018	2	27		AM		Cloudy	Asia	Japan	"Hoon-bashi bridge, Oguri-gawa Riv., Tokyo"	35.648532		139.457918														7.5	10.1																												2020/06/22	2020/06/22
PRA000100	SAA007096	ST015				Tokyo33_2018Winter_PM	Water	"River water"	2018	2	27		PM		Fair	Asia	Japan	"Hoon-bashi bridge, Oguri-gawa Riv., Tokyo"	35.648532		139.457918														13.8	12.6																												2020/06/22	2020/06/22
PRA000100	SAA007097	ST015				Tokyo34_2018Winter_AM	Water	"River water"	2018	2	27		AM		Cloudy	Asia	Japan	"Takahata bridge, Asa-kawa Riv., Tokyo"	35.664964		139.407388														6.8	10.1																												2020/06/22	2020/06/22
PRA000100	SAA007098	ST015				Tokyo34_2018Winter_PM	Water	"River water"	2018	2	27		PM		Fair	Asia	Japan	"Takahata bridge, Asa-kawa Riv., Tokyo"	35.664964		139.407388														11.7	14.3																												2020/06/22	2020/06/22
PRA000100	SAA007099	ST015				Tokyo35_2018Winter_AM	Water	"River water"	2018	2	21		AM		Fair	Asia	Japan	"Seiryu-bashi bridge, Yanase-gawa Riv., Kiyose city, Tokyo"	35.80483		139.538193														13	14.3																												2020/06/22	2020/06/22
PRA000100	SAA007100	ST015				Tokyo35_2018Winter_PM	Water	"River water"	2018	2	21		PM		Cloudy	Asia	Japan	"Seiryu-bashi bridge, Yanase-gawa Riv., Kiyose city, Tokyo"	35.80483		139.538193														10.8	15																												2020/06/22	2020/06/22
PRA000100	SAA007101	ST015				Tokyo36_2018Winter_AM	Water	"River water"	2018	2	21		AM		Fair	Asia	Japan	"Sakae bridge, Yanase-gawa Riv., Shiki city, Saitama"	35.835634		139.580318														10.8	18.8																												2020/06/22	2020/06/22
PRA000100	SAA007102	ST015				Tokyo36_2018Winter_PM	Water	"River water"	2018	2	21		PM		Fair	Asia	Japan	"Sakae bridge, Yanase-gawa Riv., Shiki city, Saitama"	35.835634		139.580318														14.2	19.2																												2020/06/22	2020/06/22
PRA000100	SAA007103	ST015				Tokyo37_2018Winter_AM	Water	"River water"	2019	1	9		AM		Fair	Asia	Japan	"Ohgi-ohashi bridge, Ara-kawa Riv., Adachi Ward, Tokyo"	35.757589		139.770681														5.7	10.5	7.38																											2020/06/22	2020/06/22
PRA000100	SAA007104	ST015				Tokyo37_2018Winter_PM	Water	"River water"	2019	1	9		PM		Fair	Asia	Japan	"Ohgi-ohashi bridge, Ara-kawa Riv., Adachi Ward, Tokyo"	35.757589		139.770681														6.4	10.8	7.48																											2020/06/22	2020/06/22
PRA000100	SAA007105	ST015				Tokyo38_2018Winter_AM	Water	"River water"	2019	1	9		AM		Fair	Asia	Japan	"Horikiri bridge, Ara-kawa Riv., Tokyo"	35.745773		139.819413														6.8	9.5	7.42																											2020/06/22	2020/06/22
PRA000100	SAA007106	ST015				Tokyo38_2018Winter_PM	Water	"River water"	2019	1	9		PM		Fair	Asia	Japan	"Horikiri bridge, Ara-kawa Riv., Tokyo"	35.745773		139.819413														7.3	9.8	7.37																											2020/06/22	2020/06/22
PRA000100	SAA007107	ST015				Tokyo39_2018Winter_AM	Water	"River water"	2019	1	8		AM		Fair	Asia	Japan	"Odai Bridge, Sumida-gawa Riv., Tokyo"	35.754176		139.762566														11.2	12.5	7.04																											2020/06/22	2020/06/22
PRA000100	SAA007108	ST015				Tokyo39_2018Winter_PM	Water	"River water"	2019	1	8		PM		Fair	Asia	Japan	"Odai Bridge, Sumida-gawa Riv., Tokyo"	35.754176		139.762566														13	13	7.08																											2020/06/22	2020/06/22
PRA000100	SAA007109	ST015				Tokyo40_2018Winter_AM	Water	"River water"	2019	1	8		AM		Fair	Asia	Japan	"Ryogoku Bridge, Sumida Riv., Tokyo"	35.694258		139.788704														12	11.5	7.8																											2020/06/22	2020/06/22
PRA000100	SAA007110	ST015				Tokyo40_2018Winter_PM	Water	"River water"	2019	1	8		PM		Fair	Asia	Japan	"Ryogoku Bridge, Sumida Riv., Tokyo"	35.694258		139.788704														12	11.5	7.53																											2020/06/22	2020/06/22
PRA000100	SAA007111	ST015				Tokyo41_2018Winter_AM	Water	"River water"	2018	3	6		AM		Fair	Asia	Japan	"Shiodome bridge, Naka-gawa Riv., Saitama"	35.800727		139.85166														11.5	14.5																												2020/06/22	2020/06/22
PRA000100	SAA007112	ST015				Tokyo41_2018Winter_PM	Water	"River water"	2018	3	6		PM		Fair	Asia	Japan	"Shiodome bridge, Naka-gawa Riv., Saitama"	35.800727		139.85166														11.1	14																												2020/06/22	2020/06/22
PRA000100	SAA007113	ST015				Tokyo42_2018Winter_AM	Water	"River water"	2018	3	6		AM		Fair	Asia	Japan	"Heiwa bridge, Naka-gawa Riv., Tokyo"	35.727687		139.848471														14	13.5																												2020/06/22	2020/06/22
PRA000100	SAA007114	ST015				Tokyo42_2018Winter_PM	Water	"River water"	2018	3	6		PM		Fair	Asia	Japan	"Heiwa bridge, Naka-gawa Riv., Tokyo"	35.727687		139.848471														12.1	14.5																												2020/06/22	2020/06/22
PRA000100	SAA007115	ST015				FukuokaCity01_2018Summer_AM	Water	"River water"	2018	7	25		AM		Fair	Asia	Japan	"Kasuya-ohashi bridge, Kubara-gawa Riv., Fukuoka city"	33.63292		130.478904														36.1	31	8.3		29.5																									2020/10/2	2020/10/2
PRA000100	SAA007116	ST015				FukuokaCity01_2018Summer_PM	Water	"River water"	2018	7	25		PM		Fair	Asia	Japan	"Kasuya-ohashi bridge, Kubara-gawa Riv., Fukuoka city"	33.63292		130.478904														37.5	33	8.8		30.3																									2020/10/2	2020/10/2
PRA000100	SAA007117	ST015				FukuokaCity02_2018Summer_AM	Water	"River water"	2018	7	25		AM		Fair	Asia	Japan	"Okawa-bashi bridge, Tatara-gawa Riv., Fukuoka"	33.625244		130.475672														31	29.3	8		23.9																									2020/10/2	2020/10/2
PRA000100	SAA007118	ST015				FukuokaCity02_2018Summer_PM	Water	"River water"	2018	7	25		PM		Fair	Asia	Japan	"Okawa-bashi bridge, Tatara-gawa Riv., Fukuoka"	33.625244		130.475672														35	32	8.5		23.6																									2020/10/2	2020/10/2
PRA000100	SAA007119	ST015				FukuokaCity03_2018Summer_AM	Water	"River water"	2018	7	25		AM		Fair	Asia	Japan	"Amouzu-bashi bridge, upstream of Tatara-gawa Riv., Fukuoka"	33.630287		130.46797														35	31	7.8		25.1																									2020/10/2	2020/10/2
PRA000100	SAA007120	ST015				FukuokaCity03_2018Summer_PM	Water	"River water"	2018	7	25		PM		Fair	Asia	Japan	"Amouzu-bashi bridge, upstream of Tatara-gawa Riv., Fukuoka"	33.630287		130.46797														33.2	30.8	8.2		25																									2020/10/2	2020/10/2
PRA000100	SAA007121	ST015				FukuokaCity04_2018Summer_AM	Water	"River water"	2018	7	25		AM		Fair	Asia	Japan	"Najima-bashi bridge, downstream of Tatara-gawa Riv., Fukuoka"	33.639706		130.426939														37.1	31.5	7.8		1650																									2020/10/2	2020/10/2
PRA000100	SAA007122	ST015				FukuokaCity04_2018Summer_PM	Water	"River water"	2018	7	25		PM		Fair	Asia	Japan	"Najima-bashi bridge, downstream of Tatara-gawa Riv., Fukuoka"	33.639706		130.426939														38	31	7.7		1420																									2020/10/2	2020/10/2
PRA000100	SAA007123	ST015				FukuokaCity05_2018Summer_AM	Water	"River water"	2018	7	25		AM		Fair	Asia	Japan	"Kyuya-bashi bridge, downstream of Sue-gawa Riv., Fukuoka"	33.624055		130.430771														34.3	31.8	8.5		402																									2020/10/2	2020/10/2
PRA000100	SAA007124	ST015				FukuokaCity05_2018Summer_PM	Water	"River water"	2018	7	25		PM		Fair	Asia	Japan	"Kyuya-bashi bridge, downstream of Sue-gawa Riv., Fukuoka"	33.624055		130.430771														36.2	33	8.5		603																									2020/10/2	2020/10/2
PRA000100	SAA007125	ST015				FukuokaCity06_2018Summer_AM	Water	"River water"	2018	7	25		AM		Fair	Asia	Japan	"Tounomoto-bashi bridge, downstream of Umi-gawa Riv., Fukuoka"	33.623557		130.430194														33	30	7.6		891																									2020/10/2	2020/10/2
PRA000100	SAA007126	ST015				FukuokaCity06_2018Summer_PM	Water	"River water"	2018	7	25		PM		Fair	Asia	Japan	"Tounomoto-bashi bridge, downstream of Umi-gawa Riv., Fukuoka"	33.623557		130.430194														35	31.8	7.6		849																									2020/10/2	2020/10/2
PRA000100	SAA007127	ST015				FukuokaCity01_2018Winter_AM	Water	"River water"	2018	2	13		AM		Fair	Asia	Japan	"Kasuya-ohashi bridge, Kubara-gawa Riv., Fukuoka city"	33.63292		130.478904																8		38																									2020/10/2	2020/10/2
PRA000100	SAA007128	ST015				FukuokaCity01_2018Winter_PM	Water	"River water"	2018	2	13		PM		Fair	Asia	Japan	"Kasuya-ohashi bridge, Kubara-gawa Riv., Fukuoka city"	33.63292		130.478904																8.5		36.6																									2020/10/2	2020/10/2
PRA000100	SAA007129	ST015				FukuokaCity02_2018Winter_AM	Water	"River water"	2018	2	13		AM		Fair	Asia	Japan	"Okawa-bashi bridge, Tatara-gawa Riv., Fukuoka"	33.625244		130.475672																8.1		24.8																									2020/10/2	2020/10/2
PRA000100	SAA007130	ST015				FukuokaCity02_2018Winter_PM	Water	"River water"	2018	2	13		PM		Fair	Asia	Japan	"Okawa-bashi bridge, Tatara-gawa Riv., Fukuoka"	33.625244		130.475672																8.2		26.7																									2020/10/2	2020/10/2
PRA000100	SAA007131	ST015				FukuokaCity03_2018Winter_AM	Water	"River water"	2018	2	13		AM		Fair	Asia	Japan	"Amouzu-bashi bridge, upstream of Tatara-gawa Riv., Fukuoka"	33.630287		130.46797																8.1		27.2																									2020/10/2	2020/10/2
PRA000100	SAA007132	ST015				FukuokaCity03_2018Winter_PM	Water	"River water"	2018	2	13		PM		Fair	Asia	Japan	"Amouzu-bashi bridge, upstream of Tatara-gawa Riv., Fukuoka"	33.630287		130.46797																8.1		30																									2020/10/2	2020/10/2
PRA000100	SAA007133	ST015				FukuokaCity04_2018Winter_AM	Water	"River water"	2018	2	13		AM		Fair	Asia	Japan	"Najima-bashi bridge, downstream of Tatara-gawa Riv., Fukuoka"	33.639706		130.426939																7.7		2210																									2020/10/2	2020/10/2
PRA000100	SAA007134	ST015				FukuokaCity04_2018Winter_PM	Water	"River water"	2018	2	13		PM		Fair	Asia	Japan	"Najima-bashi bridge, downstream of Tatara-gawa Riv., Fukuoka"	33.639706		130.426939																7.8		1010																									2020/10/2	2020/10/2
PRA000100	SAA007135	ST015				FukuokaCity05_2018Winter_AM	Water	"River water"	2018	2	13		AM		Fair	Asia	Japan	"Kyuya-bashi bridge, downstream of Sue-gawa Riv., Fukuoka"	33.624055		130.430771																7.5		790																									2020/10/2	2020/10/2
PRA000100	SAA007136	ST015				FukuokaCity05_2018Winter_PM	Water	"River water"	2018	2	13		PM		Fair	Asia	Japan	"Kyuya-bashi bridge, downstream of Sue-gawa Riv., Fukuoka"	33.624055		130.430771																8.5		163.8																									2020/10/2	2020/10/2
PRA000100	SAA007137	ST015				FukuokaCity06_2018Winter_AM	Water	"River water"	2018	2	13		AM		Fair	Asia	Japan	"Tounomoto-bashi bridge, downstream of Umi-gawa Riv., Fukuoka"	33.623557		130.430194																7.5		797																									2020/10/2	2020/10/2
PRA000100	SAA007138	ST015				FukuokaCity06_2018Winter_PM	Water	"River water"	2018	2	13		PM		Fair	Asia	Japan	"Tounomoto-bashi bridge, downstream of Umi-gawa Riv., Fukuoka"	33.623557		130.430194																8		261																									2020/10/2	2020/10/2
